Tracking 30995 objects as of 7-Jul-2025
HD Live streaming from Space Station
objects crossing your sky now

JILIN-01-08

Track JILIN-01-08 now!
10-day predictions


NORAD ID: 43160
Int'l Code: 2018-008F
Perigee: 486.1 km
Apogee: 494.1 km
Inclination: 97.2 °
Period: 94.3 minutes
Semi major axis: 6861 km
RCS: Unknown
Launch date: January 19, 2018
Source: People's Republic of China (PRC)
Launch site: Jiuquan Satellite Launch Center, China (JSC)
Your satellite tracking list
NOAA 16 DEB
Track 1 satellite(s)




NASA's NSSDC Master Catalog

Two Line Element Set (TLE):
1 43160U 18008F   25187.86573915  .00005547  00000-0  20800-3 0  9992
2 43160  97.2072 212.6154 0005832 213.9613 146.1254 15.27619980412128
Source of the keplerian elements: AFSPC